Weather History for Ben-Gurion International Airport, Israel

Change the Weather History Date:

Saturday, October 26, 2013

  Actual Average Record
Temperature  
Mean Temperature 70 °F -  
Max Temperature 81 °F 75 °F - ()
Min Temperature 59 °F 57 °F - ()
Cooling Degree Days 5    
Growing Degree Days 20 (Base 50)    
Moisture  
Dew Point 54 °F    
Average Humidity 58    
Maximum Humidity 78    
Minimum Humidity 26    
Precipitation  
Precipitation 0.00 in - - ()
Sea Level Pressure  
Sea Level Pressure 29.98 in    
Wind  
Wind Speed 4 mph ()    
Max Wind Speed 16 mph    
Max Gust Speed -    
Visibility 6.1 miles    
Events      
T = Trace of Precipitation, MM = Missing Value Source: Averaged Metar Reports

Daily Weather History Graph

Daily Weather History Graph

Search for Another Location

Airport:

Trip Planner

Search our weather history database for the weather conditions in past years. The results will help you decide how hot, cold, wet, or windy it might be!

Date:

Astronomy

Oct. 26, 2013 Rise Set
Actual Time 6:52 AM IDT 5:56 PM IDT
Civil Twilight 6:27 AM IDT 6:21 PM IDT
Nautical Twilight 5:58 AM IDT 6:49 PM IDT
Astronomical Twilight 5:30 AM IDT 7:18 PM IDT
Moon 11:55 PM IDT (10/26) 12:52 PM IDT (10/26)
Length of Visible Light 11h 54m
Length of Day
11h 04m
Waning Gibbous, 56% of the Moon is Illuminated
Oct 26
Waning Gibbous
Oct 27
Last Quarter
Nov 3
New
Nov 10
First Quarter
Nov 17
Full

Hourly Weather History & Observations

Time (IDT) Temp. Dew Point Humidity Pressure Visibility Wind Dir Wind Speed Gust Speed Precip Events Conditions
12:20 AM 64.4 °F 51.8 °F 64% 29.98 in - Variable 2.3 mph - N/A   Clear
12:50 AM 64.4 °F 51.8 °F 64% 29.98 in - Variable 3.5 mph - N/A   Clear
1:20 AM 64.4 °F 51.8 °F 64% 29.98 in - Variable 2.3 mph - N/A   Clear
1:50 AM 60.8 °F 50.0 °F 68% 29.98 in - Variable 1.2 mph - N/A   Clear
2:20 AM 62.6 °F 50.0 °F 63% 29.98 in - Variable 1.2 mph - N/A   Clear
2:50 AM 62.6 °F 51.8 °F 68% 29.98 in - Variable 3.5 mph - N/A   Clear
3:00 AM 62 °F 51 °F 59% 29.98 in 6 mi 3.5 mph - -  
3:20 AM 60.8 °F 48.2 °F 63% 29.95 in 6.2 mi Variable 1.2 mph - N/A   Scattered Clouds
3:50 AM 60.8 °F 50.0 °F 68% 29.98 in 6.2 mi Variable 1.2 mph - N/A   Partly Cloudy
4:20 AM 62.6 °F 51.8 °F 68% 29.98 in 6.2 mi Variable 2.3 mph - N/A   Scattered Clouds
4:50 AM 62.6 °F 51.8 °F 68% 29.98 in 6.2 mi Variable 1.2 mph - N/A   Partly Cloudy
5:20 AM 60.8 °F 50.0 °F 68% 29.98 in 6.2 mi Variable 1.2 mph - N/A   Partly Cloudy
5:50 AM 60.8 °F 51.8 °F 72% 29.98 in 6.2 mi Variable 3.5 mph - N/A   Scattered Clouds
6:20 AM 62.6 °F 53.6 °F 72% 29.98 in 6.2 mi Variable 2.3 mph - N/A   Partly Cloudy
6:50 AM 60.8 °F 51.8 °F 72% 29.98 in 6.2 mi Variable 3.5 mph - N/A   Partly Cloudy
7:20 AM 59.0 °F 50.0 °F 72% 29.98 in - Variable 3.5 mph - N/A   Clear
7:50 AM 60.8 °F 51.8 °F 72% 30.01 in - Variable 2.3 mph - N/A   Clear
8:20 AM 64.4 °F 51.8 °F 64% 30.01 in - Variable 1.2 mph - N/A   Clear
8:50 AM 66.2 °F 55.4 °F 68% 30.01 in - Variable 2.3 mph - N/A   Clear
9:00 AM 66 °F 54 °F 57% 30.01 in 6 mi 2.3 mph - -  
9:20 AM 69.8 °F 55.4 °F 60% 30.01 in - Variable 2.3 mph - N/A   Clear
9:50 AM 71.6 °F 57.2 °F 60% 30.01 in - Variable 2.3 mph - N/A   Clear
10:20 AM 73.4 °F 53.6 °F 50% 30.01 in - Variable 2.3 mph - N/A   Clear
10:50 AM 75.2 °F 51.8 °F 44% 30.01 in - Variable 3.5 mph - N/A   Clear
11:20 AM 77.0 °F 44.6 °F 32% 29.98 in - Variable 2.3 mph - N/A   Clear
11:50 AM 77.0 °F 44.6 °F 32% 29.98 in - Variable 3.5 mph - N/A   Clear
12:20 PM 78.8 °F 42.8 °F 28% 29.98 in - NNW 5.8 mph - N/A   Clear
12:50 PM 80.6 °F 44.6 °F 28% 29.95 in - NNW 6.9 mph - N/A   Clear
1:20 PM 78.8 °F 50.0 °F 36% 29.95 in - NW 11.5 mph - N/A   Clear
1:50 PM 80.6 °F 46.4 °F 30% 29.95 in - NW 13.8 mph - N/A   Clear
2:20 PM 78.8 °F 50.0 °F 36% 29.92 in - NW 13.8 mph - N/A   Clear
2:50 PM 78.8 °F 48.2 °F 34% 29.92 in - NW 16.1 mph - N/A   Clear
3:00 PM 79 °F 50 °F 26% 29.93 in 6 mi NNW 15.0 mph - -  
3:20 PM 78.8 °F 51.8 °F 39% 29.92 in - NW 15.0 mph - N/A   Clear
3:50 PM 78.8 °F 53.6 °F 42% 29.92 in - NW 16.1 mph - N/A   Clear
4:20 PM 77.0 °F 57.2 °F 50% 29.92 in - NNW 15.0 mph - N/A   Clear
4:50 PM 77.0 °F 57.2 °F 50% 29.92 in - NNW 13.8 mph - N/A   Clear
5:20 PM 75.2 °F 59.0 °F 57% 29.95 in - NNW 13.8 mph - N/A   Clear
5:50 PM 75.2 °F 60.8 °F 61% 29.95 in - NNW 12.7 mph - N/A   Clear
6:20 PM 73.4 °F 60.8 °F 65% 29.95 in - North 8.1 mph - N/A   Clear
6:50 PM 73.4 °F 60.8 °F 65% 29.98 in - North 6.9 mph - N/A   Clear
7:20 PM 71.6 °F 60.8 °F 69% 29.98 in - North 5.8 mph - N/A   Clear
7:50 PM 71.6 °F 60.8 °F 69% 29.98 in - Variable 2.3 mph - N/A   Clear
8:20 PM 71.6 °F 60.8 °F 69% 29.98 in - ENE 4.6 mph - N/A   Clear
8:50 PM 71.6 °F 60.8 °F 69% 29.98 in - Variable 3.5 mph - N/A   Clear
9:00 PM 71 °F 61 °F 62% 29.99 in 6 mi 3.5 mph - -  
9:20 PM 71.6 °F 60.8 °F 69% 29.98 in - Variable 2.3 mph - N/A   Clear
9:50 PM 69.8 °F 60.8 °F 73% 30.01 in - Variable 2.3 mph - N/A   Clear
10:50 PM 68.0 °F 59.0 °F 73% 30.01 in - Variable 1.2 mph - N/A   Clear
11:20 PM 66.2 °F 59.0 °F 78% 30.01 in - Variable 2.3 mph - N/A   Clear
11:50 PM 66.2 °F 57.2 °F 73% 30.01 in - Calm Calm - N/A   Clear